Theta_e
314 316 315 311 309 314 307 309 304 307 310 316 319 318 322 328 331 333 337 338 340 342 346 342 343 345 345 353 354 354 353 353
314 315 315 313 315 307 307 300 299 305 307 309 315 315 327 330 331 334 337 337 339 344 345 345 344 347 350 354 354 353 352 351
312 310 310 311 309 311 310 309 301 300 304 313 317 318 321 329 333 336 337 337 340 344 345 345 346 349 352 352 353 350 349 350
309 313 315 315 313 312 306 306 308 307 306 319 320 322 322 329 335 338 339 341 343 344 344 344 346 347 350 351 348 349 349 349
306 311 313 310 312 313 314 314 309 305 307 315 321 324 327 330 336 338 338 343 345 345 344 345 346 348 347 344 346 349 348 347
304 306 312 308 309 311 312 307 308 307 310 317 319 322 331 332 336 335 340 343 346 346 347 347 347 344 344 345 347 348 346 346
311 311 311 310 309 310 309 310 308 310 310 315 323 327 328 334 337 335 337 342 345 345 346 346 345 347 345 345 347 348 347 346
310 311 310 308 309 309 311 311 312 313 312 323 328 331 329 334 337 336 336 339 343 344 347 344 345 345 347 348 348 350 348 346
306 309 309 305 309 310 311 313 313 310 318 325 327 329 330 332 338 337 338 337 342 344 344 346 347 348 348 349 351 351 349 348
307 309 300 311 316 315 313 315 316 316 320 326 329 333 335 336 335 338 339 339 343 344 344 346 348 350 352 351 352 350 351 349
303 304 307 310 314 314 311 311 317 317 321 325 329 333 335 338 340 340 342 342 346 349 345 349 350 352 352 351 352 349 348 349
307 302 299 310 318 323 320 308 318 324 322 324 327 317 328 335 343 343 346 348 346 345 345 343 343 348 347 345 345 342 342 342
303 303 306 315 323 324 308 316 332 332 333 333 330 333 334 334 335 338 338 338 340 340 338 337 342 345 341 340 335 332 333 335
304 301 299 320 320 314 328 336 334 334 334 333 330 329 328 329 328 331 333 334 336 334 329 331 334 338 334 329 327 329 328 325
308 307 327 328 333 335 335 335 336 335 334 334 331 328 328 327 329 325 325 327 329 329 327 328 328 329 322 321 323 324 322 319
314 317 322 327 331 333 335 336 336 335 334 334 334 331 328 329 325 325 327 328 329 329 326 322 323 323 322 323 324 322 319 316
314 321 323 326 331 332 334 334 334 334 334 334 334 332 328 327 326 325 327 330 330 327 323 320 322 322 323 322 322 318 316 314
312 324 326 328 332 333 331 333 332 332 332 334 333 333 330 328 329 331 329 327 326 324 323 322 322 322 321 322 322 320 318 316
320 326 328 330 331 332 332 332 333 333 333 332 334 333 332 331 331 322 325 324 322 322 323 322 320 320 321 323 324 324 321 320
Wind_Speed
1 11 14 14 12 15 17 17 13 12 7 9 8 3 8 7 6 10 11 13 13 13 13 14 14 13 12 11 10 10 9 7
11 9 10 18 6 11 9 15 15 13 3 5 8 2 17 9 8 9 11 11 11 11 11 12 13 11 12 14 12 11 10 8
7 12 13 9 12 13 16 10 10 8 4 16 6 4 7 10 10 10 10 11 11 12 12 13 14 13 12 12 12 11 9 7
12 7 5 8 12 15 10 13 10 11 6 19 8 8 3 11 12 11 12 11 11 13 14 13 13 13 12 11 10 9 8 7
13 10 13 11 13 12 10 12 14 14 3 7 8 9 4 11 13 11 10 12 12 13 12 12 11 10 11 10 9 9 8 7
13 3 15 13 15 14 13 12 12 16 16 15 6 11 10 10 13 13 12 13 13 12 13 12 9 4 6 8 9 8 8 7
17 17 9 11 10 14 13 14 18 9 4 23 16 6 6 9 13 13 13 14 14 14 13 14 12 12 10 8 9 9 8 7
16 16 10 13 12 14 10 13 14 20 12 6 10 11 7 9 12 13 13 13 15 15 15 14 13 11 10 9 9 9 8 8
13 17 15 14 13 14 14 14 15 11 6 16 10 10 7 5 12 13 13 13 13 15 14 13 14 12 11 11 10 9 8 8
12 15 14 8 2 7 8 10 9 9 3 6 4 8 8 2 7 11 12 11 12 12 12 12 12 10 10 11 9 7 5 5
13 12 14 11 6 9 9 11 11 10 4 4 3 7 10 8 3 4 6 9 9 7 9 5 6 4 6 5 5 5 2 2
12 13 18 13 5 9 1 9 14 3 5 6 6 9 8 5 10 11 11 11 10 10 10 7 4 4 5 5 5 4 1 3
13 14 12 14 6 3 11 3 9 9 10 10 6 7 8 6 7 7 7 7 8 7 8 5 4 4 5 6 5 4 4 4
14 17 19 8 3 12 8 9 7 8 7 10 11 10 9 8 7 6 7 8 7 8 8 6 5 3 6 7 5 5 4 6
11 9 7 6 10 7 5 5 7 5 7 9 10 11 9 9 7 12 11 9 7 7 7 6 5 6 7 5 5 6 7 6
5 8 6 4 7 7 9 7 5 4 3 4 10 10 9 8 9 6 6 5 5 6 6 5 6 7 7 6 6 8 8 7
11 4 3 7 9 6 7 5 4 3 3 6 6 9 9 9 7 6 6 5 4 5 5 6 7 7 6 6 8 8 8 8
2 9 6 6 5 4 3 6 3 5 6 4 6 9 9 9 9 9 7 5 6 6 7 7 7 6 6 6 6 8 8 7
7 8 6 3 3 4 4 3 3 2 4 4 8 7 7 7 7 9 6 7 6 6 7 7 7 7 5 6 5 5 8 9
Wind_Direction
248 211 238 248 244 260 277 272 266 283 252 182 135 204 141 116 129 150 158 165 168 157 159 169 169 173 184 165 164 164 157 155
163 234 236 258 288 241 231 266 282 265 273 204 146 163 119 135 155 151 161 151 153 152 153 161 171 171 168 162 168 161 159 163
167 213 239 187 238 255 286 287 283 276 151 1 356 91 101 131 148 161 162 160 157 146 154 154 160 160 168 158 164 159 156 141
220 223 257 293 236 220 247 229 260 277 285 193 147 137 145 136 144 159 158 143 154 152 150 150 155 158 157 161 161 153 137 144
243 220 204 242 243 250 271 284 277 278 61 40 296 134 102 139 141 155 150 152 149 148 149 142 139 158 162 166 152 152 149 156
255 1 290 192 238 236 229 248 244 244 262 188 132 115 120 144 150 164 164 159 155 158 150 149 133 103 190 173 150 147 162 163
262 276 262 264 224 212 235 244 258 262 144 326 85 64 81 155 157 169 174 174 162 164 156 158 157 197 174 165 152 157 162 163
270 263 245 260 242 261 251 240 252 263 308 130 103 86 74 152 168 180 183 187 169 167 165 162 179 177 175 155 160 169 171 166
249 241 234 232 245 251 237 251 253 266 16 10 71 78 79 163 174 187 187 190 178 170 174 180 181 183 170 161 168 172 180 181
262 258 240 243 271 316 322 309 260 253 221 110 82 96 78 342 187 184 187 189 183 173 180 180 182 173 178 167 179 179 203 187
255 254 274 255 187 233 246 265 270 248 278 129 127 156 77 17 26 153 163 166 182 164 165 148 134 136 153 181 178 191 121 249
258 250 254 272 19 58 314 266 276 71 273 295 174 253 77 57 39 65 49 74 86 88 79 72 79 180 158 134 97 107 70 357
235 258 255 269 79 184 223 38 36 14 26 24 53 47 89 90 80 71 81 107 119 130 117 131 188 166 137 136 95 55 21 37
236 247 245 172 221 259 48 82 45 58 51 88 96 95 98 102 109 125 129 137 147 110 79 53 29 121 104 89 72 61 60 77
239 236 77 29 74 76 39 64 53 41 73 108 118 115 122 116 106 68 70 65 77 110 125 105 73 84 109 92 88 77 74 70
298 167 122 98 110 74 45 47 61 46 59 87 103 117 122 123 104 107 120 110 129 122 100 91 77 82 92 97 93 97 94 85
252 136 128 104 50 40 87 79 90 118 100 97 106 115 127 129 141 144 155 162 139 121 124 118 106 97 95 106 101 97 95 95
353 40 326 72 48 27 48 79 80 105 118 103 107 136 142 152 162 165 127 132 132 131 132 120 112 111 107 102 119 123 128 121
18 349 342 45 52 22 28 51 100 114 109 126 141 139 137 128 93 91 135 138 138 130 122 117 116 109 115 126 150 147 111 124